KC5TIL Weather Reports


Display with metric or nautical units.
time (UTC)temp
F
wind
direction
speed
MPH
gust
MPH
rain 1hr
in
rain 24hr
in
rain mn
in
humidity
%
barometer
mb
20260509061042 71 129 0.0 0.0 0.00 0.00 0.00 91 1012.5
20260509060539 71 155 1.0 1.0 0.00 0.00 0.00 91 1012.5
20260509060034 71 131 0.0 1.0 0.00 0.00 0.00 90 1012.7
20260509055530 71 335 1.0 1.0 0.00 0.00 0.00 90 1012.6
20260509055021 71 137 1.0 2.0 0.00 0.00 0.00 90 1012.5
20260509054518 71 93 1.0 2.0 0.00 0.00 0.00 90 1012.4
20260509054016 71 58 1.0 5.0 0.00 0.00 0.00 90 1012.8
20260509053514 71 114 0.0 2.0 0.00 0.00 0.00 90 1012.5
20260509053011 70 22 3.0 3.0 0.00 0.00 0.00 91 1012.3
20260509052508 70 74 1.0 2.0 0.00 0.00 0.00 92 1011.8
20260509052006 70 127 0.0 1.0 0.00 0.00 0.00 91 1011.6
20260509051504 70 119 1.0 1.0 0.00 0.00 0.00 92 1011.7
20260509051001 70 128 0.0 1.0 0.00 0.00 0.00 91 1011.6
20260509050457 70 125 0.0 0.0 0.00 0.00 0.00 91 1011.7
20260509045954 70 111 0.0 0.0 0.00 0.00 0.00 91 1011.5
20260509045451 70 121 0.0 0.0 0.00 0.00 0.00 91 1011.5
20260509044948 70 122 0.0 0.0 0.00 0.00 0.00 90 1011.3
20260509044446 71 134 0.0 0.0 0.00 0.00 0.00 90 1011.5
20260509043943 71 124 0.0 0.0 0.00 0.00 0.00 89 1011.5
20260509043438 71 127 0.0 0.0 0.00 0.00 0.00 89 1011.6
20260509042934 71 128 0.0 1.0 0.00 0.00 0.00 89 1011.9
20260509042431 72 134 0.0 1.0 0.00 0.00 0.00 89 1011.7
20260509041927 71 163 2.0 2.0 0.00 0.00 0.00 89 1011.9
20260509041424 71 134 1.0 1.0 0.00 0.00 0.00 90 1012.1
20260509040922 71 117 0.0 0.0 0.00 0.00 0.00 89 1012.0
20260509040420 71 117 0.0 1.0 0.00 0.00 0.00 89 1011.9
20260509035917 72 119 0.0 0.0 0.00 0.00 0.00 88 1011.7
20260509035414 72 122 0.0 1.0 0.00 0.00 0.00 88 1011.5
20260509034910 72 108 0.0 1.0 0.00 0.00 0.00 88 1011.6
20260509034408 72 117 0.0 1.0 0.00 0.00 0.00 88 1011.2
20260509033905 72 106 1.0 1.0 0.00 0.00 0.00 87 1010.8
20260509033402 72 127 0.0 0.0 0.00 0.00 0.00 87 1011.0
20260509032858 72 131 0.0 1.0 0.00 0.00 0.00 87 1011.0
20260509032355 72 109 0.0 1.0 0.00 0.00 0.00 87 1010.9
20260509031854 72 131 1.0 2.0 0.00 0.00 0.00 87 1010.7
20260509031351 73 121 1.0 2.0 0.00 0.00 0.00 87 1010.3
20260509030848 73 157 1.0 2.0 0.00 0.00 0.00 86 1010.5
20260509030346 73 128 0.0 3.0 0.00 0.00 0.00 86 1010.3
20260509025843 73 132 1.0 2.0 0.00 0.00 0.00 86 1010.3
20260509025338 73 129 1.0 2.0 0.00 0.00 0.00 86 1010.1
20260509024834 73 148 1.0 2.0 0.00 0.00 0.00 85 1010.1
20260509024330 73 113 0.0 2.0 0.00 0.00 0.00 85 1009.8
20260509023827 73 81 0.0 2.0 0.00 0.00 0.00 85 1009.7
20260509023325 73 139 1.0 1.0 0.00 0.00 0.00 84 1009.7
20260509022821 73 143 1.0 2.0 0.00 0.00 0.00 84 1009.8
20260509022319 73 141 1.0 2.0 0.00 0.00 0.00 84 1009.8
20260509021815 73 106 2.0 2.0 0.00 0.00 0.00 84 1009.9
20260509021312 73 130 0.0 1.0 0.00 0.00 0.00 84 1010.0
20260509020810 73 131 0.0 1.0 0.00 0.00 0.00 84 1009.9
20260509020308 73 133 0.0 1.0 0.00 0.00 0.00 84 1009.8
20260509015805 73 148 0.0 1.0 0.00 0.00 0.00 84 1009.9
20260509015306 73 133 0.0 1.0 0.00 0.00 0.00 84 1010.1
20260509014759 73 121 0.0 0.0 0.00 0.00 0.00 85 1010.1
20260509014256 73 122 0.0 0.0 0.00 0.00 0.00 85 1010.0
20260509013753 73 129 0.0 0.0 0.00 0.00 0.00 84 1009.9
20260509013248 73 146 1.0 1.0 0.00 0.00 0.00 84 1009.9
20260509012745 73 117 0.0 0.0 0.00 0.00 0.00 84 1009.8
20260509012242 73 115 0.0 0.0 0.00 0.00 0.00 84 1009.9
20260509011739 73 127 0.0 1.0 0.00 0.00 0.00 83 1009.6
20260509011237 73 124 0.0 0.0 0.00 0.00 0.00 83 1009.6
20260509010735 73 119 0.0 1.0 0.00 0.00 0.00 83 1009.7
20260509010231 73 115 0.0 1.0 0.00 0.00 0.00 82 1009.4
20260509005728 73 126 0.0 1.0 0.00 0.00 0.00 82 1009.5
20260509005225 73 126 0.0 1.0 0.00 0.00 0.00 82 1009.3
20260509004720 73 108 2.0 2.0 0.00 0.00 0.00 82 1009.2
20260509004218 73 100 0.0 1.0 0.00 0.00 0.00 82 1009.2
20260509003716 73 129 0.0 1.0 0.00 0.00 0.00 82 1009.0
20260509003213 73 144 1.0 1.0 0.00 0.00 0.00 82 1009.2
20260509002710 73 116 0.0 1.0 0.00 0.00 0.00 82 1009.1
20260509002208 74 115 0.0 0.0 0.00 0.00 0.00 81 1009.3
20260509001705 74 133 1.0 2.0 0.00 0.00 0.00 81 1009.1
20260509001201 74 128 0.0 1.0 0.00 0.00 0.00 80 1009.2
20260509000659 74 124 0.0 1.0 0.00 0.00 0.00 80 1009.3
20260509000156 74 124 0.0 0.0 0.00 0.00 0.00 80 1009.3
20260508235653 74 130 0.0 1.0 0.00 0.00 0.00 80 1009.4
20260508235149 74 130 1.0 2.0 0.00 0.00 0.00 80 1009.4
20260508234646 74 125 0.0 1.0 0.00 0.00 0.00 80 1009.6
20260508234142 74 80 0.0 1.0 0.00 0.00 0.00 79 1009.5
20260508233637 74 102 0.0 1.0 0.00 0.00 0.00 79 1009.5
20260508233134 75 117 0.0 1.0 0.00 0.00 0.00 80 1009.5
20260508232631 75 148 1.0 1.0 0.00 0.00 0.00 79 1009.5
20260508232128 75 129 0.0 1.0 0.00 0.00 0.00 79 1009.5
20260508231625 74 133 1.0 2.0 0.00 0.00 0.00 78 1009.6
20260508231123 75 118 0.0 2.0 0.00 0.00 0.00 77 1009.5
20260508230619 75 125 1.0 2.0 0.00 0.00 0.00 78 1009.4
20260508230115 74 91 0.0 1.0 0.00 0.00 0.00 78 1009.5
20260508225613 74 136 1.0 5.0 0.00 0.00 0.00 77 1009.5
20260508225109 75 128 1.0 6.0 0.00 0.00 0.00 76 1009.4
20260508224607 75 144 0.0 2.0 0.00 0.00 0.00 77 1009.5
20260508224104 75 172 2.0 5.0 0.00 0.00 0.00 76 1009.4
20260508223602 75 158 1.0 2.0 0.00 0.00 0.00 77 1009.4
20260508223059 75 133 3.0 5.0 0.00 0.00 0.00 76 1009.4
20260508222556 75 170 1.0 2.0 0.00 0.00 0.00 76 1009.6
20260508222053 75 205 3.0 5.0 0.00 0.00 0.00 75 1009.6
20260508221549 74 146 2.0 3.0 0.00 0.00 0.00 75 1009.7
20260508221045 74 122 0.0 1.0 0.00 0.00 0.00 76 1009.8
20260508220542 74 148 1.0 2.0 0.00 0.00 0.00 76 1009.8
20260508220038 75 157 1.0 2.0 0.00 0.00 0.00 75 1009.9
20260508215535 75 194 3.0 3.0 0.00 0.00 0.00 73 1009.9
20260508215032 74 87 0.0 3.0 0.00 0.00 0.00 75 1010.1
20260508214530 74 67 2.0 3.0 0.00 0.00 0.00 76 1009.8
20260508214026 74 134 1.0 6.0 0.00 0.00 0.00 76 1010.3
20260508213524 73 150 1.0 5.0 0.00 0.00 0.00 76 1010.5
20260508213019 73 107 0.0 1.0 0.00 0.00 0.00 77 1010.5
20260508212516 73 85 2.0 3.0 0.00 0.00 0.00 76 1010.6
20260508212012 73 67 1.0 2.0 0.00 0.00 0.00 77 1010.7
20260508211508 72 147 1.0 2.0 0.00 0.00 0.00 78 1010.8
20260508211005 72 128 1.0 2.0 0.00 0.00 0.00 78 1011.1
20260508210501 71 152 3.0 3.0 0.00 0.00 0.00 78 1011.1
20260508205957 71 144 0.0 1.0 0.00 0.00 0.00 79 1011.2
20260508205455 71 232 1.0 2.0 0.00 0.00 0.00 79 1011.3
20260508204951 71 105 1.0 2.0 0.00 0.00 0.00 80 1011.4
20260508204448 71 133 2.0 5.0 0.00 0.00 0.00 78 1011.3
20260508203944 70 124 1.0 1.0 0.00 0.00 0.00 83 1011.2
20260508203440 69 0 3.0 7.0 0.00 0.00 0.00 84 1011.6
20260508202936 69 214 3.0 3.0 0.00 0.00 0.00 85 1010.7
20260508202433 69 69 0.0 2.0 0.00 0.00 0.00 84 1010.7
20260508201930 69 164 1.0 2.0 0.00 0.00 0.00 82 1011.0
20260508201427 69 110 1.0 2.0 0.00 0.00 0.00 81 1011.7
20260508200924 70 169 1.0 1.0 0.00 0.00 0.00 79 1011.7
20260508200421 70 125 1.0 5.0 0.00 0.00 0.00 77 1011.6
20260508195915 71 102 0.0 1.0 0.00 0.00 0.00 74 1012.1
20260508195413 71 176 1.0 3.0 0.00 0.00 0.00 72 1012.6
20260508194903 72 131 0.0 2.0 0.00 0.00 0.00 72 1012.4
20260508194401 72 146 1.0 3.0 0.00 0.00 0.00 71 1012.4
20260508193858 72 157 2.0 2.0 0.00 0.00 0.00 70 1012.2
20260508193354 73 124 1.0 1.0 0.00 0.00 0.00 70 1012.3
20260508192850 73 135 1.0 3.0 0.00 0.00 0.00 69 1012.4
20260508192347 73 183 0.0 3.0 0.00 0.00 0.00 69 1012.2
20260508191845 73 147 1.0 1.0 0.00 0.00 0.00 70 1012.2
20260508191342 73 175 2.0 5.0 0.00 0.00 0.00 69 1012.3
20260508190839 73 138 0.0 1.0 0.00 0.00 0.00 70 1012.4
20260508190335 73 154 1.0 3.0 0.00 0.00 0.00 69 1012.7
20260508185832 74 190 1.0 2.0 0.00 0.00 0.00 69 1012.7
20260508185329 74 172 1.0 1.0 0.00 0.00 0.00 69 1012.6
20260508184826 73 128 1.0 5.0 0.00 0.00 0.00 69 1012.5
20260508184324 73 148 2.0 6.0 0.00 0.00 0.00 69 1012.7
20260508183821 74 119 1.0 3.0 0.00 0.00 0.00 68 1012.8
20260508183317 73 248 3.0 3.0 0.00 0.00 0.00 67 1012.7
20260508182812 74 78 1.0 5.0 0.00 0.00 0.00 68 1012.9
20260508182310 75 132 1.0 2.0 0.00 0.00 0.00 68 1013.0
20260508181805 75 137 1.0 2.0 0.00 0.00 0.00 66 1013.1
20260508181303 75 179 0.0 2.0 0.00 0.00 0.00 67 1013.0
20260508180759 77 161 2.0 2.0 0.00 0.00 0.00 65 1013.2
20260508180256 77 95 1.0 2.0 0.00 0.00 0.00 65 1013.1
20260508175753 77 162 3.0 3.0 0.00 0.00 0.00 63 1013.1
20260508175249 76 159 1.0 3.0 0.00 0.00 0.00 63 1013.1
20260508174747 75 84 0.0 3.0 0.00 0.00 0.00 66 1013.2
20260508174245 75 161 2.0 3.0 0.00 0.00 0.00 65 1013.4
20260508173741 75 137 0.0 3.0 0.00 0.00 0.00 67 1013.4
20260508173237 74 178 1.0 2.0 0.00 0.00 0.00 67 1013.6
20260508172733 73 35 2.0 3.0 0.00 0.00 0.00 67 1013.9
20260508172231 72 87 0.0 3.0 0.00 0.00 0.00 69 1014.0
20260508171727 72 140 0.0 3.0 0.00 0.00 0.00 69 1014.2
20260508171223 72 133 1.0 2.0 0.00 0.00 0.00 69 1014.2
20260508170720 72 92 0.0 1.0 0.00 0.00 0.00 69 1014.1
20260508170218 72 86 1.0 2.0 0.00 0.00 0.00 69 1014.3
20260508165715 72 81 1.0 2.0 0.00 0.00 0.00 68 1014.3
20260508165212 72 112 1.0 1.0 0.00 0.00 0.00 68 1014.4
20260508164708 73 61 1.0 6.0 0.00 0.00 0.00 68 1014.5
20260508164205 72 109 1.0 2.0 0.00 0.00 0.00 67 1014.4
20260508163703 73 196 1.0 6.0 0.00 0.00 0.00 67 1014.6
20260508163200 72 67 0.0 2.0 0.00 0.00 0.00 68 1014.5
20260508162655 72 130 1.0 2.0 0.00 0.00 0.00 67 1014.7
20260508162153 72 165 1.0 2.0 0.00 0.00 0.00 68 1014.7
20260508161650 70 63 1.0 3.0 0.00 0.00 0.00 69 1014.8
20260508161147 70 131 1.0 5.0 0.00 0.00 0.00 70 1015.1
20260508160645 69 141 1.0 2.0 0.00 0.00 0.00 71 1015.2
20260508160143 69 134 2.0 2.0 0.00 0.00 0.00 72 1015.2
20260508155640 68 127 2.0 3.0 0.00 0.00 0.00 72 1015.3
20260508155136 67 132 1.0 1.0 0.00 0.00 0.00 74 1015.4
20260508154634 67 121 1.0 2.0 0.00 0.00 0.00 73 1015.5
20260508154130 67 121 1.0 5.0 0.00 0.00 0.00 74 1015.6
20260508153627 67 175 1.0 2.0 0.00 0.00 0.00 74 1015.7
20260508153124 67 117 0.0 1.0 0.00 0.00 0.00 74 1015.5
20260508152621 67 177 1.0 3.0 0.00 0.00 0.00 73 1015.8
20260508152116 67 168 1.0 3.0 0.00 0.00 0.00 73 1015.8
20260508151613 67 134 1.0 2.0 0.00 0.00 0.00 73 1015.8
20260508151110 67 144 1.0 3.0 0.00 0.00 0.00 73 1015.9
20260508150607 67 150 1.0 2.0 0.00 0.00 0.00 73 1015.8
20260508145600 67 155 0.0 1.0 0.00 0.00 0.00 72 1016.0
20260508145056 68 131 0.0 1.0 0.00 0.00 0.00 72 1015.6
20260508144554 67 123 0.0 1.0 0.00 0.00 0.00 72 1015.6
20260508144051 67 137 0.0 2.0 0.00 0.00 0.00 72 1016.0
20260508143548 67 123 0.0 2.0 0.00 0.00 0.00 72 1016.0
20260508143045 68 146 1.0 1.0 0.00 0.00 0.00 71 1015.8
20260508142542 68 119 1.0 2.0 0.00 0.00 0.00 72 1015.8
20260508142038 68 149 1.0 2.0 0.00 0.00 0.00 71 1016.0
20260508141535 69 145 1.0 3.0 0.00 0.00 0.00 69 1015.9
20260508141033 70 112 0.0 2.0 0.00 0.00 0.00 67 1016.0
20260508140530 69 124 0.0 1.0 0.00 0.00 0.00 68 1016.0
20260508140026 69 88 0.0 1.0 0.00 0.00 0.00 70 1016.1
20260508135522 68 82 2.0 3.0 0.00 0.00 0.00 70 1016.3
20260508135018 68 125 0.0 2.0 0.00 0.00 0.00 70 1016.3
20260508134515 67 131 1.0 2.0 0.00 0.00 0.00 71 1016.2
20260508134012 67 144 0.0 1.0 0.00 0.00 0.00 72 1016.3
20260508133509 68 125 0.0 2.0 0.00 0.00 0.00 72 1016.3
20260508133006 67 112 0.0 2.0 0.00 0.00 0.00 72 1016.3
20260508132504 67 119 1.0 2.0 0.00 0.00 0.00 72 1015.9
20260508132000 67 105 1.0 2.0 0.00 0.00 0.00 73 1015.9
20260508131455 66 126 1.0 2.0 0.00 0.00 0.00 74 1015.8
20260508130952 66 109 0.0 1.0 0.00 0.00 0.00 77 1016.1
20260508130450 66 77 1.0 1.0 0.00 0.00 0.00 76 1016.4
20260508125945 66 95 0.0 1.0 0.00 0.00 0.00 77 1016.3
20260508125441 66 86 0.0 2.0 0.00 0.00 0.00 76 1016.4
20260508124939 66 109 0.0 1.0 0.00 0.00 0.00 76 1016.5
20260508124437 65 141 1.0 1.0 0.00 0.00 0.00 76 1016.7
20260508123934 65 104 0.0 0.0 0.00 0.00 0.00 78 1016.5
20260508123433 64 113 0.0 0.0 0.00 0.00 0.00 80 1016.4
20260508122929 63 105 0.0 0.0 0.00 0.00 0.00 82 1016.4
20260508122426 62 105 0.0 1.0 0.00 0.00 0.00 83 1016.6
20260508121923 60 105 0.0 0.0 0.00 0.00 0.00 88 1016.7
20260508121421 60 89 1.0 1.0 0.00 0.00 0.00 89 1016.5
20260508120919 60 119 0.0 0.0 0.00 0.00 0.00 88 1016.1
20260508120416 60 115 0.0 1.0 0.00 0.00 0.00 88 1016.2
20260508115914 59 118 0.0 0.0 0.00 0.00 0.00 88 1016.5
20260508115412 59 129 0.0 0.0 0.00 0.00 0.00 89 1016.4
20260508114908 59 125 0.0 0.0 0.00 0.00 0.00 90 1016.2
20260508114404 59 119 0.0 0.0 0.00 0.00 0.00 90 1016.3
20260508113901 59 118 0.0 0.0 0.00 0.00 0.00 90 1016.3
20260508113359 59 120 0.0 0.0 0.00 0.00 0.00 89 1016.5
20260508112856 59 119 0.0 0.0 0.00 0.00 0.00 89 1016.5
20260508112353 59 119 0.0 0.0 0.00 0.00 0.00 88 1016.3
20260508111849 60 127 0.0 0.0 0.00 0.00 0.00 88 1016.5
20260508111346 59 136 0.0 0.0 0.00 0.00 0.00 88 1016.4
20260508110843 60 117 0.0 0.0 0.00 0.00 0.00 88 1016.4
20260508110341 60 112 0.0 0.0 0.00 0.00 0.00 88 1016.4
20260508105841 60 116 0.0 0.0 0.00 0.00 0.00 86 1016.4
20260508105338 61 119 0.0 0.0 0.00 0.00 0.00 86 1016.6
20260508104835 61 345 1.0 2.0 0.00 0.00 0.00 86 1016.7
20260508104331 61 115 0.0 0.0 0.00 0.00 0.00 86 1016.3
20260508103829 61 119 0.0 1.0 0.00 0.00 0.00 85 1016.1
20260508103326 61 125 0.0 0.0 0.00 0.00 0.00 85 1016.1
20260508102823 61 125 0.0 0.0 0.00 0.00 0.00 86 1016.2
20260508102321 61 85 1.0 1.0 0.00 0.00 0.00 86 1015.9
20260508101818 61 132 0.0 0.0 0.00 0.00 0.00 86 1015.9
20260508101316 61 124 0.0 1.0 0.00 0.00 0.00 86 1015.5
20260508100813 61 125 0.0 0.0 0.00 0.00 0.00 86 1015.3
20260508100311 61 124 0.0 0.0 0.00 0.00 0.00 86 1015.6
20260508095806 61 121 0.0 0.0 0.00 0.00 0.00 86 1015.7
20260508095306 61 125 0.0 0.0 0.00 0.00 0.00 86 1015.8
20260508094801 61 130 0.0 0.0 0.00 0.00 0.00 85 1015.9
20260508094258 61 109 0.0 0.0 0.00 0.00 0.00 86 1015.7
20260508093755 61 115 0.0 0.0 0.00 0.00 0.00 85 1015.9
20260508093253 61 131 0.0 0.0 0.00 0.00 0.00 85 1015.8
20260508092749 61 123 0.0 0.0 0.00 0.00 0.00 85 1015.8
20260508092248 61 123 0.0 0.0 0.00 0.00 0.00 85 1015.6
20260508091746 61 122 0.0 0.0 0.00 0.00 0.00 84 1015.9
20260508091242 61 123 0.0 0.0 0.00 0.00 0.00 84 1015.8
20260508090740 62 121 0.0 0.0 0.00 0.00 0.00 84 1015.9
20260508090238 62 129 0.0 0.0 0.00 0.00 0.00 84 1016.2
20260508085733 62 133 0.0 1.0 0.00 0.00 0.00 83 1015.6
20260508085231 62 130 0.0 1.0 0.00 0.00 0.00 83 1015.6
20260508084726 62 121 0.0 1.0 0.00 0.00 0.00 83 1016.0
20260508084224 62 140 1.0 1.0 0.00 0.00 0.00 83 1015.9
20260508083721 62 131 0.0 1.0 0.00 0.00 0.00 82 1015.9
20260508083219 62 127 0.0 0.0 0.00 0.00 0.00 82 1015.8
20260508082714 62 136 1.0 1.0 0.00 0.00 0.00 83 1015.7
20260508082212 62 146 0.0 1.0 0.00 0.00 0.00 83 1016.0
20260508081709 62 131 0.0 1.0 0.00 0.00 0.00 82 1016.0
20260508081205 62 128 0.0 1.0 0.00 0.00 0.00 81 1015.9
20260508080702 62 129 0.0 0.0 0.00 0.00 0.00 81 1016.2
20260508080201 62 118 0.0 0.0 0.00 0.00 0.00 82 1016.3
20260508075657 62 101 1.0 1.0 0.00 0.00 0.00 82 1016.3
20260508075154 62 118 0.0 0.0 0.00 0.00 0.00 83 1016.8
20260508074651 62 111 0.0 0.0 0.00 0.00 0.00 83 1016.7
20260508074148 62 119 0.0 0.0 0.00 0.00 0.00 82 1016.9
20260508073645 62 119 0.0 0.0 0.00 0.00 0.00 82 1017.0
20260508073143 62 129 0.0 0.0 0.00 0.00 0.00 81 1016.9
20260508072639 63 111 0.0 2.0 0.00 0.00 0.00 81 1017.0
20260508072136 63 58 1.0 1.0 0.00 0.00 0.00 81 1016.9
20260508071633 63 63 0.0 1.0 0.00 0.00 0.00 80 1016.8
20260508071132 63 87 1.0 2.0 0.00 0.00 0.00 78 1017.1
20260508070629 63 114 0.0 1.0 0.00 0.00 0.00 79 1016.9
20260508070128 62 99 1.0 1.0 0.00 0.00 0.00 80 1016.9
20260508065624 62 130 0.0 0.0 0.00 0.00 0.00 80 1016.9
20260508065122 62 130 0.0 0.0 0.00 0.00 0.00 80 1017.0
20260508064620 62 123 0.0 0.0 0.00 0.00 0.00 80 1016.8
20260508064118 62 128 0.0 0.0 0.00 0.00 0.00 79 1016.9
20260508063615 62 115 0.0 0.0 0.00 0.00 0.00 80 1016.8
20260508063113 62 131 0.0 0.0 0.00 0.00 0.00 79 1016.9
20260508062610 62 119 0.0 1.0 0.00 0.00 0.00 79 1016.9
20260508062106 62 120 0.0 0.0 0.00 0.00 0.00 78 1017.1
20260508061604 62 134 0.0 0.0 0.00 0.00 0.00 78 1017.0